Gogerbank, United Kingdom

4:32 PM GMT on February 25, 2017 (GMT +0000)
Edinburgh Airport

Weather History for EGPH - April, 2013

Change the Weather History Date:

Tuesday, April 30, 2013

  Actual Average Record
Temperature  
Mean Temperature 44 °F -  
Max Temperature 57 °F 58 °F 64 °F (1997)
Min Temperature 32 °F 42 °F 32 °F (2013)
Degree Days  
Heating Degree Days 20    
Moisture  
Dew Point 31 °F    
Average Humidity 61    
Maximum Humidity 93    
Minimum Humidity 29    
Precipitation  
Precipitation 0.00 in 0.07 in - ()
Sea Level Pressure  
Sea Level Pressure 30.23 in    
Wind  
Wind Speed 7 mph ()    
Max Wind Speed 16 mph    
Max Gust Speed -    
Visibility 6.2 miles    
Events      
Averages and records for this station are not official NWS values.
T = Trace of Precipitation, MM = Missing Value Source: Averaged Metar Reports

Daily Weather History Graph

Daily Weather History Graph

Search for Another Location

Airport or City:

Trip Planner

Search our weather history database for the weather conditions in past years. The results will help you decide how hot, cold, wet, or windy it might be!

Date:

Astronomy

Apr. 30, 2013 Rise Set
Actual Time 5:31 AM BST 8:50 PM BST
Civil Twilight 4:47 AM BST 9:35 PM BST
Nautical Twilight 3:47 AM BST 10:36 PM BST
Astronomical Twilight 2:14 AM BST 12:13 AM BST
Moon 1:16 AM BST (4/30) 9:30 AM BST (4/30)
Length of Visible Light 16h 47m
Length of Day
15h 19m
Waning Gibbous, 72% of the Moon is Illuminated
Apr 30
Waning Gibbous
May 2
Last Quarter
May 10
New
May 18
First Quarter
May 25
Full

Hourly Weather History & Observations

Time (BST) Temp. Windchill Dew Point Humidity Pressure Visibility Wind Dir Wind Speed Gust Speed Precip Events Conditions
12:20 AM 41.0 °F 35.2 °F 35.6 °F 81% 30.09 in - West 9.2 mph - N/A   Clear
12:50 AM 41.0 °F 36.4 °F 37.4 °F 87% 30.12 in 6.2 mi WSW 6.9 mph - N/A   Mostly Cloudy
1:20 AM 37.4 °F 32.8 °F 33.8 °F 87% 30.12 in 6.2 mi WSW 5.8 mph - N/A   Scattered Clouds
1:50 AM 37.4 °F 31.4 °F 33.8 °F 87% 30.15 in - WSW 8.1 mph - N/A   Clear
2:20 AM 33.8 °F 27.7 °F 32.0 °F 93% 30.15 in - WSW 6.9 mph - N/A   Clear
2:50 AM 35.6 °F 31.7 °F 33.8 °F 93% 30.18 in 6.2 mi SW 4.6 mph - N/A   Scattered Clouds
3:20 AM 37.4 °F 32.8 °F 33.8 °F 87% 30.18 in 6.2 mi WSW 5.8 mph - N/A   Unknown
3:50 AM 37.4 °F 32.8 °F 33.8 °F 87% 30.18 in 6.2 mi SSW 5.8 mph - N/A   Partly Cloudy
4:20 AM 35.6 °F 30.7 °F 33.8 °F 93% 30.21 in - West 5.8 mph - N/A   Clear
4:50 AM 35.6 °F 31.7 °F 33.8 °F 93% 30.21 in 6.2 mi West 4.6 mph - N/A   Unknown
5:20 AM 32.0 °F 25.6 °F 30.2 °F 93% 30.21 in - WSW 6.9 mph - N/A   Clear
5:50 AM 32.0 °F 26.4 °F 30.2 °F 93% 30.24 in - WSW 5.8 mph - N/A   Clear
6:20 AM 33.8 °F 29.6 °F 32.0 °F 93% 30.24 in - West 4.6 mph - N/A   Clear
6:50 AM 35.6 °F 31.7 °F 33.8 °F 93% 30.27 in 6.2 mi West 4.6 mph - N/A   Unknown
7:20 AM 39.2 °F - 35.6 °F 87% 30.27 in - WSW 2.3 mph - N/A   Clear
7:50 AM 41.0 °F - 35.6 °F 81% 30.27 in - Variable 2.3 mph - N/A   Clear
8:20 AM 42.8 °F 41.1 °F 35.6 °F 76% 30.27 in - Variable 3.5 mph - N/A   Clear
8:50 AM 44.6 °F 41.4 °F 33.8 °F 66% 30.30 in - WNW 5.8 mph - N/A   Clear
9:20 AM 46.4 °F 44.3 °F 33.8 °F 62% 30.30 in - WNW 4.6 mph - N/A   Clear
9:50 AM 46.4 °F 45.2 °F 33.8 °F 62% 30.30 in 6.2 mi Variable 3.5 mph - N/A   Partly Cloudy
10:20 AM 48.2 °F - 28.4 °F 46% 30.30 in 6.2 mi NW 4.6 mph - N/A   Partly Cloudy
10:50 AM 50.0 °F - 30.2 °F 47% 30.30 in 6.2 mi WNW 4.6 mph - N/A   Partly Cloudy
11:20 AM 50.0 °F - 28.4 °F 43% 30.30 in 6.2 mi Variable 3.5 mph - N/A   Partly Cloudy
11:50 AM 51.8 °F - 26.6 °F 38% 30.30 in - Variable 3.5 mph - N/A   Clear
12:20 PM 51.8 °F - 26.6 °F 38% 30.30 in - West 6.9 mph - N/A   Clear
12:50 PM 51.8 °F - 28.4 °F 41% 30.30 in - Variable 3.5 mph - N/A   Clear
1:20 PM 53.6 °F - 26.6 °F 35% 30.27 in - SSW 8.1 mph - N/A   Clear
1:50 PM 55.4 °F - 24.8 °F 31% 30.27 in - SSW 8.1 mph - N/A   Clear
2:20 PM 55.4 °F - 26.6 °F 33% 30.27 in - SW 6.9 mph - N/A   Clear
2:50 PM 55.4 °F - 24.8 °F 31% 30.27 in - SW 11.5 mph - N/A   Clear
3:20 PM 55.4 °F - 26.6 °F 33% 30.27 in - WSW 10.4 mph - N/A   Clear
3:50 PM 55.4 °F - 26.6 °F 33% 30.24 in - WSW 9.2 mph - N/A   Clear
4:20 PM 57.2 °F - 24.8 °F 29% 30.24 in - SW 12.7 mph - N/A   Clear
4:50 PM 55.4 °F - 26.6 °F 33% 30.24 in 6.2 mi SW 10.4 mph - N/A   Unknown
5:20 PM 55.4 °F - 26.6 °F 33% 30.21 in - WSW 11.5 mph - N/A   Clear
5:50 PM 55.4 °F - 28.4 °F 36% 30.21 in - WSW 12.7 mph - N/A   Clear
6:20 PM 53.6 °F - 28.4 °F 38% 30.21 in - WSW 16.1 mph - N/A   Clear
6:50 PM 53.6 °F - 28.4 °F 38% 30.21 in 6.2 mi WSW 15.0 mph - N/A   Partly Cloudy
7:20 PM 53.6 °F - 28.4 °F 38% 30.21 in - West 15.0 mph - N/A   Clear
7:50 PM 50.0 °F - 30.2 °F 47% 30.21 in - WSW 12.7 mph - N/A   Clear
8:20 PM 48.2 °F - 32.0 °F 54% 30.21 in - WSW 11.5 mph - N/A   Clear
8:50 PM 48.2 °F - 32.0 °F 54% 30.21 in - WSW 8.1 mph - N/A   Clear
9:20 PM 44.6 °F 40.7 °F 32.0 °F 61% 30.21 in - SW 6.9 mph - N/A   Clear
9:50 PM 46.4 °F 42.4 °F 32.0 °F 57% 30.21 in - SSW 8.1 mph - N/A   Clear
10:20 PM 44.6 °F 40.2 °F 32.0 °F 61% 30.21 in - SSW 8.1 mph - N/A   Clear
10:50 PM 44.6 °F 39.7 °F 32.0 °F 61% 30.21 in - SW 9.2 mph - N/A   Clear
11:20 PM 44.6 °F 40.2 °F 33.8 °F 66% 30.21 in - WSW 8.1 mph - N/A   Clear
11:50 PM 44.6 °F 39.7 °F 33.8 °F 66% 30.21 in - SW 9.2 mph - N/A   Clear